Location: Morning Glory
(31.5701°N, 106.2158°W)
Time: 13:58:30
(UTC+00:00)

ISS - Visible Passes

Search period start: 30 November 2022 00:00
Search period end: 10 December 2022 00:00
Orbit: 411 x 420 km, 51.6° (Epoch: 30 November)

Date Brightness Start Highest point End Pass type
(mag) Time Alt. Az. Time Alt. Az. Time Alt. Az.
05 Dec -2.0 01:24:55 10° NNW 01:26:29 20° N 01:26:29 20° N visible
06 Dec -2.0 00:36:39 10° N 00:38:47 16° NE 00:40:32 12° ENE visible
06 Dec -1.1 02:12:30 10° WNW 02:13:29 17° WNW 02:13:29 17° WNW visible
07 Dec -3.9 01:23:29 10° NW 01:26:49 89° SW 01:27:57 38° SE visible
08 Dec -3.4 00:34:43 10° NNW 00:37:55 43° NE 00:41:04 10° ESE visible
08 Dec -0.5 02:13:01 10° WSW 02:14:16 12° SW 02:15:30 10° SSW visible
09 Dec -1.2 01:22:49 10° WNW 01:25:30 23° SW 01:28:11 10° S visible
